American Falls Reservoir Weather Center

Moon Phase Calendar



American Falls Reservoir Water Level
Online Cameras

 


      

Current Conditions in Aberdeen
1/25/2022 1:09:23 PM

20°F
Feels Like 10
Clouds
Humidity
86%
Pressure
30.33"
Wind
8 mph (WSW)
Dew Point
17°F
UV Index
3/10 (Moderate)
Visibility
6 mi

Hourly Forecast

Date & Time Tue, Jan 25
1:00 PM
Tue, Jan 25
2:00 PM
Tue, Jan 25
3:00 PM
Tue, Jan 25
4:00 PM
Tue, Jan 25
5:00 PM
Tue, Jan 25
6:00 PM
Tue, Jan 25
7:00 PM
Tue, Jan 25
8:00 PM
Tue, Jan 25
9:00 PM
Tue, Jan 25
10:00 PM
Tue, Jan 25
11:00 PM
Wed, Jan 26
12:00 AM
Wed, Jan 26
1:00 AM
Wed, Jan 26
2:00 AM
Wed, Jan 26
3:00 AM
Wed, Jan 26
4:00 AM
Wed, Jan 26
5:00 AM
Wed, Jan 26
6:00 AM
Wed, Jan 26
7:00 AM
Wed, Jan 26
8:00 AM
Wed, Jan 26
9:00 AM
Wed, Jan 26
10:00 AM
Wed, Jan 26
11:00 AM
Wed, Jan 26
12:00 PM
Wed, Jan 26
1:00 PM
Wed, Jan 26
2:00 PM
Wed, Jan 26
3:00 PM
Wed, Jan 26
4:00 PM
Wed, Jan 26
5:00 PM
Wed, Jan 26
6:00 PM
Wed, Jan 26
7:00 PM
Wed, Jan 26
8:00 PM
Wed, Jan 26
9:00 PM
Wed, Jan 26
10:00 PM
Wed, Jan 26
11:00 PM
Thu, Jan 27
12:00 AM
Thu, Jan 27
1:00 AM
Thu, Jan 27
2:00 AM
Thu, Jan 27
3:00 AM
Thu, Jan 27
4:00 AM
Thu, Jan 27
5:00 AM
Thu, Jan 27
6:00 AM
Thu, Jan 27
7:00 AM
Thu, Jan 27
8:00 AM
Thu, Jan 27
9:00 AM
Thu, Jan 27
10:00 AM
Thu, Jan 27
11:00 AM
Thu, Jan 27
12:00 PM
Condition
Clouds

Clouds

Clouds

Clouds

Clouds

Clouds

Clouds

Clouds

Clouds

Clouds

Clouds

Clouds

Clouds

Clouds

Clouds

Clouds

Clouds

Clouds

Clouds

Clouds

Clouds

Clouds

Clouds

Clouds

Clouds

Clouds

Clouds

Clouds

Clouds

Clouds

Clouds

Clouds

Clouds

Clouds

Clouds

Clouds

Clouds

Clouds

Clouds

Clouds

Clouds

Clouds

Clouds

Clouds

Clouds

Clouds

Clouds

Clouds
Temperature 20°F19°F19°F18°F13°F6°F3°F2°F1°F0°F-1°F-1°F-1°F-1°F-1°F-2°F-2°F-2°F-3°F1°F6°F11°F14°F17°F19°F20°F21°F20°F16°F14°F9°F5°F3°F1°F0°F0°F-1°F-2°F-3°F-3°F-4°F-4°F-5°F-6°F-2°F4°F8°F11°F
Feels Like 15°F19°F19°F18°F13°F6°F-3°F2°F1°F0°F-1°F-1°F-1°F-1°F-1°F-2°F-2°F-10°F-10°F-7°F-2°F3°F8°F11°F14°F20°F17°F20°F10°F14°F9°F5°F3°F1°F0°F0°F-1°F-2°F-3°F-3°F-4°F-4°F-5°F-6°F-9°F-5°F-1°F4°F
Cloudiness 20%31%37%39%39%24%21%32%38%43%46%59%60%61%60%60%60%58%56%69%77%81%84%100%100%100%100%100%100%100%85%59%53%48%48%57%60%61%63%68%72%97%95%93%88%86%80%35%
Visibility 6 mi6 mi6 mi6 mi6 mi6 mi6 mi6 mi6 mi6 mi6 mi6 mi6 mi6 mi6 mi6 mi6 mi6 mi6 mi6 mi6 mi6 mi6 mi6 mi6 mi6 mi6 mi6 mi6 mi6 mi6 mi6 mi6 mi6 mi6 mi6 mi6 mi5 mi5 mi3 mi3 mi4 mi4 mi4 mi5 mi6 mi6 mi6 mi
Precipitation 0%0%0%0%0%0%0%0%0%0%0%0%0%0%0%0%0%0%0%0%0%0%0%0%0%0%0%0%0%0%0%0%0%0%0%0%0%0%0%0%0%0%0%0%0%0%0%0%
Humidity 86%87%88%91%94%98%98%97%96%95%94%94%94%94%94%94%94%94%94%93%92%88%85%84%83%84%84%89%92%94%94%95%95%95%96%97%98%99%99%100%100%100%100%100%99%96%93%89%
Dew Point 17°F16°F16°F16°F12°F3°F-1°F-3°F-4°F-5°F-6°F-7°F-7°F-7°F-7°F-8°F-8°F-8°F-9°F-5°F1°F5°F9°F11°F13°F15°F16°F16°F13°F10°F5°F1°F-2°F-4°F-5°F-5°F-6°F-7°F-7°F-8°F-9°F-9°F-10°F-11°F-7°F-1°F3°F6°F
Pressure 30.33"30.39"30.42"30.47"30.56"30.68"30.71"30.74"30.74"30.77"30.77"30.77"30.77"30.77"30.77"30.77"30.74"30.74"30.74"30.71"30.65"30.62"30.56"30.53"30.47"30.45"30.42"30.45"30.5"30.53"30.59"30.65"30.68"30.74"30.77"30.8"30.83"30.83"30.89"30.89"30.95"30.95"31.01"31.04"31.01"30.98"30.95"30.89"
Wind Speed 3.4 mph2.5 mph1.5 mph1.2 mph1.5 mph2.9 mph3.1 mph1.8 mph1.5 mph1.7 mph1.4 mph2.3 mph2.4 mph2.2 mph2.6 mph2.7 mph3 mph3.3 mph3.1 mph3.3 mph4.1 mph4.2 mph3.9 mph3.8 mph3.2 mph2 mph3.3 mph2.9 mph3.7 mph2 mph1.2 mph1.5 mph1.3 mph1.3 mph1.3 mph2.5 mph2.3 mph2.6 mph2.8 mph2.8 mph2.3 mph2.1 mph2.2 mph2 mph3 mph4.3 mph4.7 mph4.3 mph
Wind
Direction
347°
NNW
358°
N
346°
NNW
290°
WNW
259°
W
181°
S
175°
S
174°
S
140°
SE
125°
SE
85°
E
70°
ENE
65°
ENE
62°
ENE
52°
NE
67°
ENE
76°
ENE
53°
NE
75°
ENE
64°
ENE
47°
NE
42°
NE
25°
NNE
26°
NNE
12°
NNE
51°
NE
12°
NNE
18°
NNE
13°
NNE
72°
ENE
33°
NNE
27°
NNE
36°
NE
68°
ENE
54°
NE
28°
NNE
39°
NE
38°
NE
36°
NE
41°
NE
61°
ENE
38°
NE
53°
NE
67°
ENE
52°
NE
23°
NNE
47°
NE
52°
NE

Daily Forecast

Date High Low Precip. Humidity
Today
Jan 25

Snow
20 °F
-1 °F
48%
88%
Wednesday
Jan 26

Clouds
21 °F
-3 °F
0%
84%
Thursday
Jan 27

Clouds
16 °F
-6 °F
0%
93%
Friday
Jan 28

Clouds
22 °F
0 °F
0%
84%
Saturday
Jan 29

Clouds
24 °F
2 °F
0%
80%
Sunday
Jan 30

Clouds
24 °F
0 °F
0%
81%
Monday
Jan 31

Snow
31 °F
18 °F
78%
89%
Tuesday
Feb 1

Snow
18 °F
7 °F
69%
87%
Wednesday
Feb 2

Clouds
5 °F
-12 °F
2%
77%
Thursday
Feb 3

Clouds
7 °F
-13 °F
0%
92%
Friday
Feb 4

Clouds
11 °F
-9 °F
0%
89%
Saturday
Feb 5

Clouds
16 °F
-4 °F
0%
87%
Sunday
Feb 6

Snow
25 °F
1 °F
36%
93%
Monday
Feb 7

Snow
23 °F
14 °F
61%
91%
Tuesday
Feb 8

Snow
16 °F
-4 °F
45%
78%
Wednesday
Feb 9

Clouds
22 °F
1 °F
4%
84%

Temperature 8-14 Day Outlook



Precipitation 8-14 Day Outlook




Quick Links
American Falls Reservoir News
American Falls Reservoir Photos
American Falls Reservoir Videos




About Us
Contact Us
Site Map
Search Site
Advertise With Us
   
AmericanFalls.USLakes.info
THE AMERICAN FALLS RESERVOIR WEBSITE

Copyright 2022, Lakes Online
Privacy    |    Legal